EW6013 Weather Reports


Display with metric or nautical units.
time (UTC)temp
F
wind
direction
speed
MPH
gust
MPH
rain 1hr
in
rain 24hr
in
rain mn
in
humidity
%
barometer
mb
20260906093516 59 0.0 0.0 0.03 0.77 0.13 10 1011.7
20260906093016 59 0.0 0.0 0.04 0.77 0.13 10 1011.7
20260906092516 59 0.0 0.0 0.04 0.77 0.13 10 1011.7
20260906092036 59 0.0 0.0 0.04 0.77 0.13 10 1011.6
20260906091536 59 0.0 0.0 0.05 0.77 0.13 10 1011.5
20260906091016 59 0.0 0.0 0.06 0.77 0.13 10 1011.5
20260906090516 59 0.0 0.0 0.06 0.77 0.13 10 1011.6
20260906090016 59 0.0 0.0 0.05 0.76 0.12 10 1011.7
20260906085516 59 0.0 0.0 0.05 0.76 0.12 10 1011.6
20260906085016 59 0.0 0.0 0.04 0.75 0.11 10 1011.6
20260906084516 59 0.0 0.0 0.04 0.75 0.11 10 1011.6
20260906084016 59 0.0 0.0 0.04 0.75 0.11 10 1011.5
20260906083516 60 0.0 0.0 0.03 0.74 0.10 10 1011.4
20260906083036 60 0.0 0.0 0.02 0.73 0.09 10 1011.4
20260906082516 60 0.0 0.0 0.02 0.73 0.09 10 1011.3
20260906082016 60 0.0 0.0 0.02 0.73 0.09 10 1011.3
20260906081536 60 0.0 0.0 0.02 0.72 0.08 10 1011.3
20260906081016 60 0.0 0.0 0.01 0.71 0.07 10 1011.3
20260906080516 60 0.0 0.0 0.01 0.71 0.07 10 1011.2
20260906080016 60 0.0 0.0 0.01 0.71 0.07 10 1011.2
20260906075516 60 0.0 0.0 0.01 0.71 0.07 10 1011.1
20260906075016 60 0.0 0.0 0.02 0.71 0.07 10 1011.0
20260906074516 60 0.0 0.0 0.02 0.71 0.07 10 1011.0
20260906074016 60 0.0 0.0 0.02 0.71 0.07 10 1010.9
20260906073516 60 0.0 0.0 0.03 0.71 0.07 10 1010.9
20260906073016 60 0.0 0.0 0.04 0.71 0.07 10 1010.9
20260906072515 60 0.0 0.0 0.04 0.71 0.07 10 1010.9
20260906072015 60 0.0 0.0 0.04 0.71 0.07 10 1010.8
20260906071516 60 0.0 0.0 0.03 0.70 0.06 10 1010.7
20260906071016 60 0.0 0.0 0.03 0.70 0.06 10 1010.7
20260906070516 60 0.0 0.0 0.04 0.70 0.06 10 1010.8
20260906070016 60 0.0 0.0 0.04 0.70 0.06 10 1010.8
20260906065516 60 0.0 0.0 0.04 0.70 0.06 10 1010.8
20260906065016 60 0.0 0.0 0.03 0.69 0.05 10 1010.8
20260906064516 60 0.0 0.0 0.04 0.69 0.05 10 1010.8
20260906064016 60 0.0 0.0 0.04 0.69 0.05 10 1010.9
20260906063515 60 0.0 0.0 0.03 0.68 0.04 10 1010.8
20260906063016 60 0.0 0.0 0.02 0.67 0.03 10 1010.8
20260906062536 60 0.0 0.0 0.02 0.67 0.03 10 1010.8
20260906062036 60 0.0 0.0 0.02 0.67 0.03 10 1010.8
20260906061536 60 0.0 0.0 0.02 0.67 0.03 10 1010.8
20260906061036 60 0.0 0.0 0.02 0.67 0.03 10 1010.8
20260906060515 60 0.0 0.0 0.01 0.66 0.02 10 1010.9
20260906060015 60 0.0 0.0 0.01 0.66 0.02 10 1010.9
20260906055516 60 0.0 0.0 0.01 0.66 0.02 10 1010.9
20260906055015 60 0.0 0.0 0.01 0.66 0.02 10 1010.9
20260906054515 60 0.0 0.0 0.00 0.65 0.01 10 1010.8
20260906054016 60 0.0 0.0 0.00 0.65 0.01 10 1010.9
20260906053535 60 0.0 0.0 0.00 0.65 0.01 10 1010.8
20260906053016 60 0.0 0.0 0.01 0.65 0.01 10 1010.9
20260906052536 60 0.0 0.0 0.01 0.65 0.01 10 1010.8
20260906052015 60 0.0 0.0 0.01 0.65 0.01 10 1010.9
20260906051515 60 0.0 0.0 0.01 0.65 0.01 10 1010.9
20260906051015 60 0.0 0.0 0.01 0.65 0.01 10 1010.9
20260906050516 60 0.0 0.0 0.01 0.65 0.01 10 1010.9
20260906050016 60 0.0 0.0 0.01 0.65 0.01 9 1010.9
20260906045535 60 0.0 0.0 0.01 0.65 0.01 9 1011.0
20260906045036 60 0.0 0.0 0.02 0.65 0.01 9 1011.0
20260906044515 61 0.0 0.0 0.02 0.65 0.01 9 1011.0
20260906044015 61 0.0 0.0 0.02 0.65 0.01 9 1011.0
20260906043515 61 0.0 0.0 0.02 0.65 0.01 9 1011.0
20260906043015 61 0.0 0.0 0.01 0.64 0.00 9 1011.0
20260906042555 61 0.0 0.0 0.01 0.64 0.00 9 1011.1
20260906042015 61 0.0 0.0 0.01 0.64 0.00 9 1011.0
20260906041515 61 0.0 0.0 0.02 0.64 0.00 9 1011.0
20260906041015 61 0.0 0.0 0.02 0.64 0.00 9 1010.9
20260906040515 61 0.0 0.0 0.02 0.64 0.00 9 1010.9
20260906040035 61 0.0 0.0 0.02 0.64 0.64 9 1010.9
20260906035515 61 0.0 0.0 0.02 0.64 0.64 9 1010.9
20260906035015 61 0.0 0.0 0.01 0.63 0.63 9 1010.9
20260906034515 61 0.0 0.0 0.01 0.63 0.63 9 1010.8
20260906034015 61 0.0 0.0 0.01 0.63 0.63 9 1010.8
20260906033555 61 0.0 0.0 0.01 0.63 0.63 9 1010.7
20260906033015 61 0.0 0.0 0.01 0.63 0.63 9 1010.6
20260906032515 61 0.0 0.0 0.01 0.63 0.63 9 1010.7
20260906032015 61 0.0 0.0 0.01 0.63 0.63 9 1010.7
20260906031515 61 0.0 0.0 0.00 0.62 0.62 9 1010.7
20260906031015 61 0.0 0.0 0.00 0.62 0.62 9 1010.7
20260906030515 61 0.0 0.0 0.00 0.62 0.62 9 1010.7
20260906030015 61 0.0 0.0 0.01 0.62 0.62 9 1010.7
20260906025535 62 0.0 0.0 0.01 0.62 0.62 9 1010.7
20260906025015 62 0.0 0.0 0.01 0.62 0.62 9 1010.7
20260906024515 62 0.0 0.0 0.01 0.62 0.62 9 1010.7
20260906024015 62 0.0 0.0 0.01 0.62 0.62 9 1010.7
20260906023515 62 0.0 0.0 0.01 0.62 0.62 9 1010.7
20260906023015 62 0.0 0.0 0.03 0.62 0.62 9 1010.7
20260906022515 62 0.0 0.0 0.04 0.62 0.62 9 1010.7
20260906022035 62 0.0 0.0 0.04 0.62 0.62 9 1010.6
20260906021515 62 0.0 0.0 0.05 0.62 0.62 9 1010.6
20260906021035 62 0.0 0.0 0.05 0.62 0.62 9 1010.6
20260906020535 62 0.0 0.0 0.05 0.62 0.62 9 1010.6
20260906020015 62 0.0 0.0 0.04 0.61 0.61 9 1010.6
20260906015515 62 0.0 0.0 0.04 0.61 0.61 9 1010.6
20260906015015 62 0.0 0.0 0.04 0.61 0.61 9 1010.6
20260906014515 62 0.0 0.0 0.04 0.61 0.61 9 1010.6
20260906014035 62 0.0 0.0 0.04 0.61 0.61 9 1010.6
20260906013515 62 0.0 0.0 0.04 0.61 0.61 9 1010.7
20260906013015 62 0.0 0.0 0.02 0.59 0.59 9 1010.9
20260906012515 62 0.0 0.0 0.02 0.58 0.58 9 1010.8
20260906012014 62 0.0 0.0 0.03 0.58 0.58 9 1010.7
20260906011515 63 0.0 0.0 0.02 0.57 0.57 9 1010.7
20260906011015 63 0.0 0.0 0.02 0.57 0.57 9 1010.7
20260906010517 63 0.0 0.0 0.03 0.57 0.57 9 1010.7
20260906010016 63 0.0 0.0 0.03 0.57 0.57 9 1010.6
20260906005557 63 0.0 0.0 0.03 0.57 0.57 9 1010.6
20260906005017 63 0.0 0.0 0.03 0.57 0.57 9 1010.5
20260906004517 63 0.0 0.0 0.03 0.57 0.57 9 1010.5
20260906004057 63 0.0 0.0 0.03 0.57 0.57 9 1010.4
20260906003557 63 0.0 0.0 0.03 0.57 0.57 9 1010.3
20260906003017 63 0.0 0.0 0.03 0.57 0.57 9 1010.2
20260906002516 63 0.0 0.0 0.02 0.56 0.56 9 1010.2
20260906002016 63 0.0 0.0 0.01 0.55 0.55 9 1010.2
20260906001516 63 0.0 0.0 0.01 0.55 0.55 9 1010.2
20260906001016 63 0.0 0.0 0.01 0.55 0.55 9 1010.2
20260906000536 63 0.0 0.0 0.00 0.54 0.54 9 1010.1
20260906000016 63 0.0 0.0 0.00 0.54 0.54 9 1010.1
20260905235516 63 0.0 0.0 0.00 0.54 0.54 9 1010.1
20260905235016 63 0.0 0.0 0.00 0.54 0.54 10 1010.1
20260905234516 63 0.0 0.0 0.00 0.54 0.54 10 1010.0
20260905234036 63 0.0 0.0 0.00 0.54 0.54 10 1010.0
20260905233516 63 0.0 0.0 0.00 0.54 0.54 10 1009.9
20260905233016 63 0.0 0.0 0.00 0.54 0.54 10 1009.8
20260905232516 63 0.0 0.0 0.00 0.54 0.54 11 1009.8
20260905232016 63 0.0 0.0 0.00 0.54 0.54 11 1009.8
20260905231516 63 0.0 0.0 0.00 0.54 0.54 11 1009.7
20260905231016 63 0.0 0.0 0.00 0.54 0.54 11 1009.7
20260905230516 63 0.0 0.0 0.00 0.54 0.54 11 1009.7
20260905230016 63 0.0 0.0 0.00 0.54 0.54 12 1009.7
20260905225516 63 0.0 0.0 0.00 0.54 0.54 12 1009.7
20260905225036 63 0.0 0.0 0.00 0.54 0.54 12 1009.5
20260905224517 63 0.0 0.0 0.00 0.54 0.54 12 1009.5
20260905224016 63 0.0 0.0 0.01 0.54 0.54 13 1009.4
20260905223556 63 0.0 0.0 0.01 0.54 0.54 14 1009.4
20260905223016 63 0.0 0.0 0.03 0.54 0.54 14 1009.4
20260905222516 63 0.0 0.0 0.05 0.54 0.54 15 1009.4
20260905222016 63 0.0 0.0 0.08 0.54 0.54 15 1009.3
20260905221516 63 0.0 0.0 0.11 0.54 0.54 16 1009.3
20260905221016 63 0.0 0.0 0.15 0.54 0.54 16 1009.4
20260905220516 63 0.0 0.0 0.19 0.54 0.54 18 1009.4
20260905220016 63 0.0 0.0 0.25 0.54 0.54 20 1009.3
20260905215516 64 0.0 0.0 0.30 0.54 0.54 23 1009.2
20260905215016 64 0.0 0.0 0.36 0.54 0.54 24 1009.1
20260905214516 64 0.0 0.0 0.42 0.54 0.54 24 1009.1
20260905214016 64 0.0 1.0 0.48 0.53 0.53 27 1009.0
20260905213656 64 68 0.0 1.0 0.52 0.53 0.53 30 1008.9
20260905213016 64 68 0.0 1.0 0.51 0.51 0.51 34 1008.9
20260905212516 64 68 0.0 1.0 0.49 0.49 0.49 39 1008.9
20260905212017 65 68 0.0 1.0 0.46 0.46 0.46 42 1008.8
20260905211516 65 0.0 0.0 0.43 0.43 0.43 45 1008.8
20260905211036 66 0.0 0.0 0.39 0.39 0.39 47 1008.8
20260905210516 66 0.0 0.0 0.35 0.35 0.35 48 1008.7
20260905210036 67 0.0 0.0 0.29 0.29 0.29 55 1008.6
20260905205516 68 0.0 0.0 0.24 0.24 0.24 56 1008.4
20260905205016 69 0.0 0.0 0.18 0.18 0.18 53 1008.4
20260905204516 69 0.0 2.0 0.12 0.12 0.12 56 1008.3
20260905204016 69 73 0.0 2.0 0.05 0.05 0.05 62 1008.3
20260905203556 69 0.0 0.0 0.01 0.01 0.01 68 1008.1
20260905203016 69 0.0 0.0 0.00 0.00 0.00 69 1007.9
20260905202556 69 0.0 0.0 0.00 0.00 0.00 67 1007.8
20260905202016 69 0.0 0.0 0.00 0.00 0.00 63 1007.7
20260905201516 69 0.0 0.0 0.00 0.00 0.00 60 1007.8
20260905201016 69 0.0 0.0 0.00 0.00 0.00 61 1007.8
20260905200516 69 0.0 0.0 0.00 0.00 0.00 62 1007.7
20260905200016 69 0.0 0.0 0.00 0.00 0.00 63 1007.7
20260905195516 69 0.0 0.0 0.00 0.00 0.00 67 1007.8
20260905195016 69 0.0 0.0 0.00 0.00 0.00 69 1007.7
20260905194536 69 0.0 0.0 0.00 0.00 0.00 69 1007.8
20260905194016 69 0.0 1.0 0.00 0.00 0.00 71 1007.7
20260905193516 69 173 0.0 2.0 0.00 0.00 0.00 71 1007.7
20260905193016 70 173 0.0 2.0 0.00 0.00 0.00 70 1007.7
20260905192516 70 0.0 0.0 0.00 0.00 0.00 72 1007.7
20260905192036 70 0.0 0.0 0.00 0.00 0.00 69 1007.7
20260905191516 70 0.0 1.0 0.00 0.00 0.00 70 1007.6
20260905191036 70 269 0.0 1.0 0.00 0.00 0.00 70 1007.6
20260905190516 70 0.0 4.0 0.00 0.00 0.00 71 1007.7
20260905190016 70 319 0.0 4.0 0.00 0.00 0.00 71 1007.6
20260905185516 70 317 0.0 3.0 0.00 0.00 0.00 71 1007.6
20260905185016 70 197 0.0 2.0 0.00 0.00 0.00 73 1007.7
20260905184516 70 74 0.0 2.0 0.00 0.00 0.00 73 1007.7
20260905184016 71 107 0.0 2.0 0.00 0.00 0.00 74 1007.7
20260905183536 71 0.0 0.0 0.00 0.00 0.00 74 1007.6
20260905183016 71 0.0 0.0 0.00 0.00 0.00 74 1007.6
20260905182516 72 0.0 0.0 0.00 0.00 0.00 74 1007.7
20260905182016 72 0.0 4.0 0.00 0.00 0.00 73 1007.7
20260905181536 71 322 0.0 4.0 0.00 0.00 0.00 74 1007.6
20260905181036 71 344 0.0 2.0 0.00 0.00 0.00 74 1007.6
20260905180516 71 0.0 0.0 0.00 0.00 0.00 74 1007.6
20260905180036 71 0.0 0.0 0.00 0.00 0.00 74 1007.7
20260905175516 71 0.0 0.0 0.00 0.00 0.00 74 1007.7
20260905175016 70 0.0 0.0 0.00 0.00 0.00 74 1007.7
20260905174515 70 0.0 0.0 0.00 0.00 0.00 73 1007.7
20260905174016 71 0.0 0.0 0.00 0.00 0.00 74 1007.6
20260905173515 71 0.0 0.0 0.00 0.00 0.00 74 1007.6
20260905173015 71 0.0 0.0 0.00 0.00 0.00 75 1007.6
20260905172536 71 0.0 0.0 0.00 0.00 0.00 75 1007.5
20260905172035 71 0.0 0.0 0.00 0.00 0.00 75 1007.5
20260905171515 71 0.0 0.0 0.00 0.00 0.00 74 1007.5
20260905171015 71 0.0 0.0 0.00 0.00 0.00 74 1007.4
20260905170515 71 0.0 0.0 0.00 0.00 0.00 74 1007.4
20260905170015 71 0.0 1.0 0.00 0.00 0.00 74 1007.4
20260905165535 71 269 0.0 1.0 0.00 0.00 0.00 73 1007.5
20260905165015 70 0.0 0.0 0.00 0.00 0.00 74 1007.5
20260905164516 70 0.0 0.0 0.00 0.00 0.00 74 1007.6
20260905164015 70 0.0 0.0 0.00 0.00 0.00 74 1007.6
20260905163515 71 0.0 0.0 0.00 0.00 0.00 75 1007.6
20260905163015 71 0.0 0.0 0.00 0.00 0.00 75 1007.5
20260905162515 71 0.0 1.0 0.00 0.00 0.00 74 1007.5
20260905162015 71 188 0.0 2.0 0.00 0.00 0.00 74 1007.5
20260905161515 71 76 0.0 2.0 0.00 0.00 0.00 74 1007.5
20260905161015 71 0.0 1.0 0.00 0.00 0.00 74 1007.6
20260905160515 71 0 0.0 1.0 0.00 0.00 0.00 74 1007.6
20260905160015 71 0.0 3.0 0.00 0.00 0.00 74 1007.6
20260905155515 71 0 0.0 3.0 0.00 0.00 0.00 74 1007.6
20260905155055 72 0 0.0 2.0 0.00 0.00 0.00 74 1007.6
20260905154515 72 0 0.0 2.0 0.00 0.00 0.00 74 1007.6
20260905154015 72 264 0.0 3.0 0.00 0.00 0.00 74 1007.6
20260905153536 71 287 0.0 3.0 0.00 0.00 0.00 74 1007.6
20260905153015 71 0.0 0.0 0.00 0.00 0.00 74 1007.6
20260905152515 70 0.0 0.0 0.00 0.00 0.00 73 1007.7
20260905152015 70 0.0 0.0 0.00 0.00 0.00 74 1007.7
20260905151515 70 0.0 0.0 0.00 0.00 0.00 72 1007.7
20260905151015 69 0.0 0.0 0.00 0.00 0.00 71 1007.7
20260905150515 69 0.0 0.0 0.00 0.00 0.00 72 1007.7
20260905150015 69 0.0 3.0 0.00 0.00 0.00 72 1007.7
20260905145515 69 344 0.0 3.0 0.00 0.00 0.00 72 1007.7
20260905145015 69 0.0 5.0 0.00 0.00 0.00 73 1007.8
20260905144515 69 353 0.0 5.0 0.00 0.00 0.00 72 1007.8
20260905144016 69 343 0.0 2.0 0.00 0.00 0.00 73 1007.9
20260905143515 69 343 0.0 2.0 0.00 0.00 0.00 73 1007.9
20260905143015 68 342 0.0 2.0 0.00 0.00 0.00 72 1007.9
20260905142515 68 0.0 0.0 0.00 0.00 0.00 71 1007.9
20260905142035 68 0.0 0.0 0.00 0.00 0.00 71 1007.9
20260905141515 68 0.0 0.0 0.00 0.00 0.00 69 1007.9
20260905141015 68 0.0 0.0 0.00 0.00 0.00 69 1008.0
20260905140515 68 0.0 0.0 0.00 0.00 0.00 69 1008.0
20260905140015 68 0.0 5.0 0.00 0.00 0.00 71 1008.0
20260905135515 68 4 0.0 5.0 0.00 0.00 0.00 68 1007.8
20260905135015 67 0.0 0.0 0.00 0.00 0.00 66 1007.8
20260905134515 67 0.0 0.0 0.00 0.00 0.00 69 1007.8
20260905134015 67 0.0 0.0 0.00 0.00 0.00 69 1007.7
20260905133515 67 0.0 0.0 0.00 0.00 0.00 64 1007.6
20260905133015 66 0.0 0.0 0.00 0.00 0.00 60 1007.6
20260905132515 66 0.0 0.0 0.00 0.00 0.00 58 1007.6
20260905132015 66 0.0 0.0 0.00 0.00 0.00 58 1007.5
20260905131535 66 0.0 3.0 0.00 0.00 0.00 55 1007.5
20260905131015 65 11 0.0 3.0 0.00 0.00 0.00 54 1007.4
20260905130535 65 48 0.0 1.0 0.00 0.00 0.00 54 1007.3
20260905130015 65 0.0 0.0 0.00 0.00 0.00 56 1007.2
20260905125515 65 0.0 1.0 0.00 0.00 0.00 57 1007.3
20260905125015 65 253 0.0 2.0 0.00 0.00 0.00 57 1007.3
20260905124515 65 252 0.0 3.0 0.00 0.00 0.00 60 1007.2
20260905124015 65 345 0.0 4.0 0.00 0.00 0.00 59 1007.2
20260905123515 65 322 0.0 4.0 0.00 0.00 0.00 57 1007.0
20260905123015 64 263 0.0 3.0 0.00 0.00 0.00 53 1007.0
20260905122515 64 259 0.0 2.0 0.00 0.00 0.00 47 1006.9
20260905122015 64 0.0 2.0 0.00 0.00 0.00 44 1006.9
20260905121535 64 6 0.0 2.0 0.00 0.00 0.00 39 1006.8
20260905121015 63 0.0 0.0 0.00 0.00 0.00 29 1006.7
20260905120635 63 0.0 0.0 0.00 0.00 0.00 24 1006.8
20260905120015 62 0.0 6.0 0.00 0.00 0.00 14 1006.7
20260905115535 62 250 0.0 6.0 0.00 0.00 0.00 11 1006.7
20260905115015 61 72 0.0 3.0 0.00 0.00 0.00 10 1006.7
20260905114515 61 252 0.0 7.0 0.00 0.00 0.00 10 1006.6
20260905114015 60 307 1.0 7.0 0.00 0.00 0.00 11 1006.6
20260905113515 59 290 1.0 7.0 0.00 0.00 0.00 12 1006.5
20260905113015 59 257 0.0 1.0 0.00 0.00 0.00 13 1006.5
20260905112515 59 0.0 0.0 0.00 0.00 0.00 14 1006.5
20260905112015 59 0.0 0.0 0.00 0.00 0.00 15 1006.6
20260905111515 59 0.0 0.0 0.00 0.00 0.00 15 1006.6
20260905111015 59 0.0 0.0 0.00 0.00 0.00 16 1006.6
20260905110515 59 0.0 0.0 0.00 0.00 0.00 17 1006.6
20260905110014 59 0.0 0.0 0.00 0.00 0.00 17 1006.5
20260905105514 59 0.0 0.0 0.00 0.00 0.00 17 1006.5
20260905105014 59 0.0 0.0 0.00 0.00 0.00 18 1006.5
20260905104517 59 0.0 0.0 0.00 0.00 0.00 18 1006.5
20260905104017 59 0.0 0.0 0.00 0.00 0.00 17 1006.5
20260905103517 59 0.0 0.0 0.00 0.00 0.00 16 1006.5
20260905103016 59 0.0 0.0 0.00 0.00 0.00 15 1006.5
20260905102516 59 0.0 0.0 0.00 0.00 0.00 15 1006.5
20260905102016 59 0.0 0.0 0.00 0.00 0.00 15 1006.4
20260905101516 59 0.0 0.0 0.00 0.00 0.00 16 1006.4
20260905101017 59 0.0 0.0 0.00 0.00 0.00 16 1006.4
20260905100516 59 0.0 0.0 0.00 0.00 0.00 17 1006.4
20260905100016 59 0.0 0.0 0.00 0.00 0.00 17 1006.3
20260905095516 59 0.0 0.0 0.00 0.00 0.00 18 1006.3
20260905095016 59 0.0 0.0 0.00 0.00 0.00 19 1006.2
20260905094517 59 0.0 1.0 0.00 0.00 0.00 21 1006.2
20260905094017 59 257 0.0 1.0 0.00 0.00 0.00 22 1006.3